Location: Gößlingen
(48.2320°N, 8.6945°E)
Time: 15:29:18
(UTC+00:00)

Daily predictions for brighter satellites

Satellite Brightness Start Highest point End
(mag) Time Altitude Azimuth Time Altitude Azimuth Time Altitude Azimuth
Cosmos 1953 2.5 18:40:35 10° SSE 18:44:16 46° E 18:47:57 10° NNE
SPOT 1/Viking Rocket 3.6 18:39:31 10° SSE 18:44:42 75° ENE 18:49:56 10° N
SJ 16-02 1.8 18:40:40 10° N 18:44:50 43° ENE 18:48:58 10° SE
CZ-4B R/B 3.3 18:39:27 10° SSE 18:45:04 68° ENE 18:50:38 10° N
NOSS 2-3 (C) 3.2 18:42:03 10° SSW 18:45:38 60° SE 18:49:40 10° NE
Cosmos 2366 rocket 4.2 18:41:29 10° N 18:47:45 56° ENE 18:53:58 10° SSE
Cosmos 2082 Rocket 4.4 18:43:11 10° NW 18:47:52 27° WSW 18:52:32 10° SSW
NOSS 2-3 (D) 3.2 18:47:12 10° SSW 18:50:47 62° SE 18:54:50 10° NE
ATLAS 3B R/B 4.0 18:47:19 10° SE 18:51:48 18° ESE 18:56:29 10° ENE
Cosmos 2098 Rocket 4.3 18:48:15 10° SE 18:52:31 26° E 18:56:11 10° NE
Cosmos 2218 Rocket 4.2 18:48:19 10° N 18:54:41 60° ENE 19:00:57 10° SSE
Terra 3.8 18:56:50 10° E 18:59:01 13° NE 19:01:13 10° NNE
USA 281 3.4 18:53:22 10° SE 18:59:48 61° ENE 19:06:16 10° NNW
USA 129 3.0 18:58:13 10° NE 19:00:38 27° E 19:02:40 10° SSE
NOSS 2-2 (E) 2.9 18:57:41 10° SW 19:00:55 78° NW 19:04:05 10° NE
Okean-O 3.4 18:59:00 10° SE 19:02:58 34° ENE 19:06:56 10° N
Cosmos 1821 Rocket 4.4 18:57:32 10° N 19:03:25 42° ENE 19:09:11 10° SE
Cosmos 1959 Rocket 4.5 18:59:35 10° N 19:05:42 68° ENE 19:11:49 10° SSE
Cosmos 1825 2.5 19:10:09 10° NNW 19:13:34 60° W 19:16:58 10° S
Cosmos 2344 3.9 19:06:15 10° SW 19:13:43 69° NW 19:21:14 10° NE
PSLV R/B 3.6 19:10:57 10° SSE 19:14:36 85° ENE 19:18:22 10° NNW
NOSS 2-2 (D) 2.7 19:11:50 10° SW 19:15:05 83° NW 19:18:16 10° NE
NOSS 2-3 (E) 3.6 19:13:44 10° SW 19:17:24 68° NW 19:21:35 10° NE
Cosmos 1025 Rocket 3.3 19:17:01 10° NNW 19:21:22 72° W 19:25:43 10° S
Meteor 1-21 Rocket 4.4 19:15:51 10° NNW 19:21:48 85° W 19:27:44 10° S
Cosmos 1656 Rocket 4.0 19:18:37 10° SW 19:24:08 69° WNW 19:29:37 10° NNE
Okean O Rocket 1.7 19:21:25 10° S 19:25:45 80° WSW 19:30:09 10° NNW
Cosmos 1302 Rocket 4.0 19:23:36 10° SSW 19:28:52 87° ESE 19:34:09 10° NNE
Resurs 01 Rocket 1.9 19:26:33 10° S 19:30:57 71° W 19:35:22 10° NNW
Cosmos 1975 Rocket 2.9 19:28:03 10° N 19:32:25 82° E 19:36:43 10° S
USA 267 4.0 19:27:51 10° NE 19:34:12 56° NNW 19:40:34 10° W
CARTOSAT-1 3.8 19:31:33 10° S 19:35:48 70° WSW 19:40:05 10° NNW
Landsat 4 4.4 19:37:44 24° ESE 19:39:00 32° ENE 19:42:10 10° N
Cosmos 2227 Rocket 4.3 19:36:48 10° N 19:40:01 15° NE 19:43:14 10° ENE
Meteor 1-11 4.2 19:36:32 10° N 19:42:13 78° ENE 19:47:18 13° SSE
ATLAS 5 CENTAUR R/B 1.7 19:40:01 10° S 19:43:00 29° ESE 19:46:14 10° ENE
CZ-4C R/B 4.2 19:38:28 10° NW 19:43:51 27° NNE 19:50:13 10° ENE
Cosmos 1346 Rocket 3.7 19:40:45 10° SSW 19:44:27 48° WNW 19:48:11 10° N
Cosmos 1782 Rocket 4.2 19:45:30 10° SSW 19:49:47 57° WNW 19:54:08 10° N
Cosmos 1934 Rocket 4.5 19:44:13 10° N 19:50:00 41° ENE 19:53:19 23° SE
BREEZE-M R/B 2.0 19:48:37 10° W 19:51:08 60° N 19:51:51 38° ENE
SPOT 5 3.2 19:48:09 21° SSE 19:51:44 62° ENE 19:56:58 10° N
NOSS 3-1 (A) 3.6 19:51:33 10° S 19:55:53 32° ESE 20:00:54 10° NE
Cosmos 1536 Rocket 4.0 19:53:58 10° N 19:58:10 43° ENE 19:59:38 32° ESE
ERS-1 Rocket 3.3 19:56:33 27° SE 19:58:53 47° ENE 20:03:42 10° N
Cosmos 2181 Rocket 4.5 19:52:54 10° SSW 19:58:59 63° WNW 20:05:14 10° N
MOS 1 4.3 19:54:38 16° SSE 19:59:18 88° WSW 20:05:03 10° NNW
Cosmos 2151 Rocket 4.0 19:59:50 32° SE 20:01:14 42° E 20:05:25 10° NNE
SL-27 R/B 1.8 19:59:30 10° NNW 20:02:27 88° ENE 20:02:50 63° SSE
CZ-4 R/B 4.2 20:01:39 10° WSW 20:03:42 14° W 20:05:45 10° WNW
COSMOS 2455 4.2 19:59:48 10° NNW 20:05:00 28° NE 20:08:24 17° E
SL-4 R/B 2.3 20:04:24 10° W 20:07:57 50° N 20:09:47 24° ENE
Cosmos 2297 Rocket 3.3 20:05:01 10° NNW 20:10:03 32° NE 20:12:24 23° E
CENTAUR R/B 4.5 20:05:02 10° NW 20:11:32 30° NNE 20:18:58 10° ENE
Cosmos 2369 Rocket 3.6 20:09:39 10° WSW 20:14:58 40° NW 20:20:17 10° NNE
IRS-1C Rocket 4.1 20:12:54 24° SSE 20:16:08 83° WSW 20:21:28 10° NNW
NOSS 3-1 (C) 3.0 20:13:03 10° SW 20:18:00 89° NW 20:24:02 10° NE
Cosmos 1354 Rocket 4.4 20:12:57 10° NNW 20:18:08 49° ENE 20:19:53 36° ESE
Cosmos 1503 Rocket 4.1 20:13:13 10° NNW 20:18:35 63° ENE 20:20:33 38° SE
Cosmos 546 4.4 20:14:50 10° WSW 20:18:36 89° SE 20:19:44 44° ENE
Cosmos 371 Rocket 3.4 20:18:06 10° NNW 20:22:52 60° ENE 20:24:08 44° ESE
SJ 16-02 3.5 20:19:39 10° NW 20:22:55 21° W 20:26:10 10° SSW
MetOp-B 4.3 20:19:36 24° S 20:22:56 72° WSW 20:28:18 10° NNW
Cosmos 1992 Rocket 4.3 20:18:42 10° SSW 20:23:52 66° WNW 20:29:05 10° NNE
Okean 2 Rocket 3.0 20:23:04 41° SSE 20:24:32 69° E 20:29:02 10° NNE
Spot 2 Rocket 3.5 20:26:59 42° SE 20:28:36 67° ENE 20:33:37 10° N
Cosmos 1241 Rocket 4.4 20:27:04 10° NW 20:33:22 86° SW 20:35:55 39° SSE
Terra 1.7 20:34:37 49° SSE 20:35:52 84° ENE 20:40:38 10° NNW
Genesis I 3.9 20:34:15 10° NNW 20:37:37 38° NE 20:37:37 38° NE
Iridium 2 4.0 20:34:56 10° N 20:37:09 46° NNW 20:37:09 46° NNW
Okean-O 4.3 20:36:10 13° SSW 20:39:23 29° W 20:43:14 10° NW
Sich 1 Rocket 3.5 20:38:14 42° SSW 20:39:41 83° W 20:44:09 10° N
Cosmos 304 Rocket 3.7 20:35:19 10° NNW 20:40:07 70° ENE 20:40:52 58° ESE
ATLAS 3B R/B 2.7 20:34:15 10° SSW 20:41:19 77° SE 20:48:55 10° NE
Nadezhda 3 Rocket 4.4 20:37:08 10° SSW 20:43:12 63° WNW 20:49:21 10° N
Cosmos 1656 4.0 20:44:12 42° E 20:44:12 42° E 20:49:00 10° NE
Cosmos 2263 Rocket 4.2 20:41:11 10° N 20:44:46 17° NE 20:47:19 13° ENE
MOS 1 Rocket 3.3 20:45:24 50° ENE 20:45:24 50° ENE 20:49:33 10° N
Ariane Rocket 2.9 20:46:40 50° S 20:48:01 83° WSW 20:53:06 10° NNW
Cosmos 1437 Rocket 4.1 20:46:48 10° N 20:49:28 29° NE 20:49:28 29° NE
SPOT 3 Rocket 3.5 20:52:04 53° S 20:53:22 84° WSW 20:58:37 10° NNW
Cosmos 332 Rocket 4.2 20:48:50 10° NNW 20:53:31 46° ENE 20:53:48 45° ENE
Cosmos 1605 Rocket 4.0 20:48:35 10° N 20:55:01 75° E 20:56:50 49° SSE
Cosmos 1932 4.5 20:52:53 10° NW 20:59:07 72° SW 21:00:44 50° S
Okean 1 Rocket 3.0 21:01:22 76° SW 21:01:40 81° W 21:06:09 10° N
Cosmos 1455 Rocket 4.0 21:07:54 37° NE 21:07:54 37° NE 21:10:53 10° NNE
Cosmos 990 Rocket 4.2 21:05:48 10° NNW 21:10:55 55° ENE 21:11:05 55° ENE
Iridium 4 Rocket 4.1 21:10:59 36° SW 21:13:02 58° W 21:18:43 10° N
MetOp-A 3.9 21:17:03 53° NNW 21:17:03 53° NNW 21:20:03 10° NNW
USA 267 4.3 21:10:31 10° ENE 21:16:34 41° N 21:22:37 10° WNW
ATLAS CENTAUR R/B 3.2 21:14:21 10° NNW 21:16:59 20° NNE 21:16:59 20° NNE
Spot 1 4.4 21:14:58 10° N 21:19:45 67° WNW 21:20:11 63° WSW
Landsat 5 3.9 21:20:47 10° N 21:24:39 62° NW 21:24:39 62° NW
Cosmos 2227 Rocket 2.4 21:19:45 10° NNW 21:25:22 57° ENE 21:25:45 56° ENE
Cosmos 1727 Rocket 4.0 21:25:28 60° ESE 21:25:45 60° E 21:31:55 10° NNE
ATLAS 5 CENTAUR R/B 3.0 21:23:42 10° W 21:26:51 30° NW 21:30:22 10° NNE
Cosmos 2100 Rocket 4.2 21:21:39 10° N 21:27:54 53° ENE 21:28:21 52° E
Cosmos 1980 Rocket 4.2 21:34:10 15° ENE 21:34:10 15° ENE 21:35:26 10° NE
CZ-4C R/B 3.1 21:26:43 10° NW 21:33:35 63° NE 21:36:02 45° ESE
USA 81 4.1 21:35:33 67° NE 21:35:33 67° NE 21:40:18 10° N
Cosmos 2058 4.1 21:32:02 10° N 21:34:36 37° N 21:34:36 37° N
Cosmos 1697 Rocket 3.6 21:43:51 37° ENE 21:43:51 37° ENE 21:47:34 10° NE
NOSS 3-1 (A) 3.9 21:41:23 10° WSW 21:46:22 51° NW 21:52:25 10° NE
SL-4 R/B 4.2 21:43:37 10° WNW 21:44:39 18° WNW 21:44:39 18° WNW
H-2A R/B 4.2 21:51:13 26° N 21:51:13 26° N 21:53:02 10° N
COSMOS 2455 2.8 21:45:30 10° NW 21:51:32 78° WSW 21:51:32 78° WSW
USA 229 DEB 3.3 21:54:04 81° ESE 21:54:04 81° ESE 22:00:51 10° NE
USA 229 3.4 21:54:13 81° ESE 21:54:13 81° ESE 22:00:57 10° NE
Cosmos 2297 Rocket 2.6 21:48:52 10° NW 21:54:11 52° WSW 21:54:11 52° WSW
Cosmos 1937 Rocket 4.2 21:50:22 10° NNW 21:55:02 47° NE 21:55:02 47° NE
Cosmos 1898 Rocket 3.8 21:54:57 10° NNW 21:59:29 60° NNE 21:59:29 60° NNE
Meteor 2-3 Rocket 4.0 21:54:50 10° N 21:59:55 58° NE 21:59:55 58° NE
Cosmos 2219 3.4 21:55:57 10° NNW 22:01:16 61° NE 22:01:16 61° NE
ARIANE 5 R/B 3.6 22:04:41 46° NNW 22:04:41 46° NNW 22:07:53 10° NNW
CENTAUR R/B 3.5 21:55:54 10° NW 22:03:51 61° NE 22:06:56 42° E
Cosmos 1725 Rocket 4.1 22:06:37 10° N 22:12:27 65° ENE 22:12:27 65° ENE
Terra 4.2 22:13:19 13° W 22:14:06 13° W 22:16:17 10° WNW
Cosmos 2233 Rocket 4.4 22:13:30 10° N 22:19:07 50° ENE 22:19:07 50° ENE
Cosmos 2082 4.1 22:18:02 10° NNW 22:23:03 57° NNE 22:23:03 57° NNE
Cosmos 1459 Rocket 4.0 22:19:52 10° NNW 22:25:35 68° WNW 22:25:35 68° WNW
ALOS 2 4.2 22:29:29 33° N 22:29:29 33° N 22:32:03 10° N
Cosmos 2263 Rocket 2.6 22:24:10 10° NNW 22:28:59 59° NNE 22:28:59 59° NNE
ATLAS 3B R/B 4.1 22:26:02 10° W 22:32:47 39° NNW 22:39:54 10° NE
SL-16 R/B 4.2 22:53:27 17° ENE 22:53:27 17° ENE 22:55:26 10° NE
Cosmos 1802 Rocket 4.3 22:45:25 10° NNW 22:51:08 57° WNW 22:51:08 57° WNW
ATLAS CENTAUR R/B 4.1 22:51:36 10° NW 22:52:06 13° NW 22:52:06 13° NW
USA 267 3.8 22:55:32 28° E 22:58:55 54° NNE 23:05:16 10° NW
H-2A R/B 4.2 23:03:13 10° NNE 23:04:46 22° NNE 23:04:46 22° NNE
Cosmos 2227 Rocket 3.9 23:04:25 10° NW 23:07:33 23° WNW 23:07:33 23° WNW
NOSS 3-2 (A) 3.9 23:06:43 10° NW 23:14:07 90° SW 23:14:40 80° SE
Cosmos 1980 Rocket 2.7 23:15:52 55° N 23:15:52 55° N 23:20:25 10° NNE
Cosmos 1844 Rocket 3.7 23:11:10 10° NNW 23:16:24 38° NE 23:16:26 38° NE
CZ-4C R/B 3.6 23:15:16 10° NW 23:21:07 42° W 23:21:07 42° W
Cosmos 1697 Rocket 4.0 23:25:31 31° WNW 23:26:17 33° NW 23:31:23 10° NNE
Cosmos 2369 4.3 23:36:22 54° NNW 23:36:22 54° NNW 23:41:04 10° NNE
